Time,TemperatureF,DewpointF,PressureIn,WindDirection,WindDirectionDegrees,WindSpeedMPH,WindSpeedGustMPH,Humidity,HourlyPrecipIn,Conditions,Clouds,dailyrainin,SolarRadiationWatts/m^2,SoftwareType,DateUTC
2013-07-25 00:02:00,60.9,55.4,30.03,South,190,0.0,0.0,82,0.00,CLR,,0.00,0.0,WeatherDisplay:10.37,2013-07-25 05:02:00,
2013-07-25 00:07:00,61.2,56.0,30.03,South,190,0.0,0.0,83,0.00,CLR,,0.00,0.0,WeatherDisplay:10.37,2013-07-25 05:07:00,
2013-07-25 00:12:00,61.2,56.0,30.03,South,190,0.0,0.0,83,0.00,CLR,,0.00,0.0,WeatherDisplay:10.37,2013-07-25 05:12:00,
2013-07-25 00:17:00,61.2,56.3,30.03,South,190,0.0,0.0,84,0.00,CLR,,0.00,0.0,WeatherDisplay:10.37,2013-07-25 05:17:00,
2013-07-25 00:22:00,61.0,56.1,30.03,South,190,0.0,0.0,84,0.00,CLR,,0.00,0.0,WeatherDisplay:10.37,2013-07-25 05:22:00,
2013-07-25 00:27:00,60.7,55.5,30.03,South,190,0.0,0.0,83,0.00,CLR,,0.00,0.0,WeatherDisplay:10.37,2013-07-25 05:27:00,
2013-07-25 00:32:00,60.4,55.2,30.03,South,190,0.0,0.0,83,0.00,CLR,,0.00,0.0,WeatherDisplay:10.37,2013-07-25 05:32:00,
2013-07-25 00:37:00,60.2,55.0,30.03,South,190,0.0,0.0,83,0.00,CLR,,0.00,0.0,WeatherDisplay:10.37,2013-07-25 05:37:00,
2013-07-25 00:42:00,59.9,54.7,30.03,South,190,0.0,0.0,83,0.00,CLR,,0.00,0.0,WeatherDisplay:10.37,2013-07-25 05:42:00,
2013-07-25 00:47:00,59.8,54.6,30.02,South,190,0.0,0.0,83,0.00,CLR,,0.00,0.0,WeatherDisplay:10.37,2013-07-25 05:47:00,
2013-07-25 00:52:00,59.6,54.4,30.02,South,190,0.0,0.0,83,0.00,CLR,,0.00,0.0,WeatherDisplay:10.37,2013-07-25 05:52:00,
2013-07-25 00:57:00,59.5,54.7,30.02,South,190,0.0,0.0,84,0.00,CLR,,0.00,0.0,WeatherDisplay:10.37,2013-07-25 05:57:00,
2013-07-25 01:02:00,59.3,54.5,30.02,South,190,0.0,0.0,84,0.00,CLR,,0.00,0.0,WeatherDisplay:10.37,2013-07-25 06:02:00,
2013-07-25 01:07:00,59.2,54.7,30.02,South,190,0.0,0.0,85,0.00,CLR,,0.00,0.0,WeatherDisplay:10.37,2013-07-25 06:07:00,
2013-07-25 01:12:00,59.0,54.5,30.02,South,190,0.0,0.0,85,0.00,CLR,,0.00,0.0,WeatherDisplay:10.37,2013-07-25 06:12:00,
2013-07-25 01:17:00,59.0,54.8,30.01,South,190,0.0,0.0,86,0.00,CLR,,0.00,0.0,WeatherDisplay:10.37,2013-07-25 06:17:00,
2013-07-25 01:22:00,58.9,54.7,30.01,South,190,0.0,0.0,86,0.00,CLR,,0.00,0.0,WeatherDisplay:10.37,2013-07-25 06:22:00,
2013-07-25 01:27:00,58.9,54.7,30.01,South,190,0.0,0.0,86,0.00,CLR,,0.00,0.0,WeatherDisplay:10.37,2013-07-25 06:27:00,
2013-07-25 01:32:00,58.7,54.5,30.01,South,190,0.0,0.0,86,0.00,CLR,,0.00,0.0,WeatherDisplay:10.37,2013-07-25 06:32:00,
2013-07-25 01:37:00,58.6,54.4,30.01,South,190,0.0,0.0,86,0.00,CLR,,0.00,0.0,WeatherDisplay:10.37,2013-07-25 06:37:00,
2013-07-25 01:42:00,58.4,54.2,30.01,South,190,0.0,0.0,86,0.00,CLR,,0.00,0.0,WeatherDisplay:10.37,2013-07-25 06:42:00,
2013-07-25 01:47:00,58.3,54.1,30.01,South,190,0.0,0.0,86,0.00,CLR,,0.00,0.0,WeatherDisplay:10.37,2013-07-25 06:47:00,
2013-07-25 01:52:00,58.1,54.2,30.01,South,190,0.0,0.0,87,0.00,CLR,,0.00,0.0,WeatherDisplay:10.37,2013-07-25 06:52:00,
2013-07-25 01:57:00,58.1,54.2,30.01,South,190,0.0,0.0,87,0.00,CLR,,0.00,0.0,WeatherDisplay:10.37,2013-07-25 06:57:00,
2013-07-25 02:02:00,58.0,54.5,30.02,South,190,0.0,0.0,88,0.00,CLR,,0.00,0.0,WeatherDisplay:10.37,2013-07-25 07:02:00,
2013-07-25 02:07:00,58.0,54.5,30.02,South,190,0.0,1.2,88,0.00,CLR,,0.00,0.0,WeatherDisplay:10.37,2013-07-25 07:07:00,
2013-07-25 02:12:00,57.8,54.3,30.02,South,190,0.0,0.0,88,0.00,CLR,,0.00,0.0,WeatherDisplay:10.37,2013-07-25 07:12:00,
2013-07-25 02:17:00,57.6,54.1,30.01,South,190,0.0,0.0,88,0.00,CLR,,0.00,0.0,WeatherDisplay:10.37,2013-07-25 07:17:00,
2013-07-25 02:22:00,57.6,54.1,30.01,South,190,0.0,0.0,88,0.00,CLR,,0.00,0.0,WeatherDisplay:10.37,2013-07-25 07:22:00,
2013-07-25 02:27:00,57.5,54.0,30.01,South,190,0.0,0.0,88,0.00,CLR,,0.00,0.0,WeatherDisplay:10.37,2013-07-25 07:27:00,
2013-07-25 02:32:00,57.5,54.0,30.00,South,190,0.0,0.0,88,0.00,CLR,,0.00,0.0,WeatherDisplay:10.37,2013-07-25 07:32:00,
2013-07-25 02:37:00,57.3,54.1,30.00,South,190,0.0,0.0,89,0.00,CLR,,0.00,0.0,WeatherDisplay:10.37,2013-07-25 07:37:00,
2013-07-25 02:42:00,57.3,54.1,30.00,South,190,0.0,0.0,89,0.00,CLR,,0.00,0.0,WeatherDisplay:10.37,2013-07-25 07:42:00,
2013-07-25 02:47:00,57.5,54.3,30.00,South,190,0.0,0.0,89,0.00,CLR,,0.00,0.0,WeatherDisplay:10.37,2013-07-25 07:47:00,
2013-07-25 02:52:00,57.5,54.3,30.00,South,190,0.0,0.0,89,0.00,CLR,,0.00,0.0,WeatherDisplay:10.37,2013-07-25 07:52:00,
2013-07-25 02:57:00,57.5,54.3,30.00,South,190,0.0,0.0,89,0.00,CLR,,0.00,0.0,WeatherDisplay:10.37,2013-07-25 07:57:00,
2013-07-25 03:02:00,57.3,54.1,30.01,South,190,0.0,0.0,89,0.00,CLR,,0.00,0.0,WeatherDisplay:10.37,2013-07-25 08:02:00,
2013-07-25 03:07:00,57.2,54.0,30.01,South,190,0.0,0.0,89,0.00,CLR,,0.00,0.0,WeatherDisplay:10.37,2013-07-25 08:07:00,
2013-07-25 03:12:00,57.2,54.0,30.01,South,190,0.0,0.0,89,0.00,CLR,,0.00,0.0,WeatherDisplay:10.37,2013-07-25 08:12:00,
2013-07-25 03:17:00,57.0,53.8,30.01,South,190,0.0,0.0,89,0.00,CLR,,0.00,0.0,WeatherDisplay:10.37,2013-07-25 08:17:00,
2013-07-25 03:22:00,57.0,53.8,30.01,South,190,0.0,0.0,89,0.00,CLR,,0.00,0.0,WeatherDisplay:10.37,2013-07-25 08:22:00,
2013-07-25 03:27:00,56.9,54.0,30.01,South,190,0.0,0.0,90,0.00,CLR,,0.00,0.0,WeatherDisplay:10.37,2013-07-25 08:27:00,
2013-07-25 03:32:00,56.9,54.0,30.01,South,190,0.0,0.0,90,0.00,CLR,,0.00,0.0,WeatherDisplay:10.37,2013-07-25 08:32:00,
2013-07-25 03:37:00,56.9,54.0,30.01,South,190,0.0,0.0,90,0.00,CLR,,0.00,0.0,WeatherDisplay:10.37,2013-07-25 08:37:00,
2013-07-25 03:42:00,57.0,54.1,30.01,South,190,0.0,0.0,90,0.00,CLR,,0.00,0.0,WeatherDisplay:10.37,2013-07-25 08:42:00,
2013-07-25 03:47:00,57.2,54.3,30.02,South,190,0.0,0.0,90,0.00,CLR,,0.00,0.0,WeatherDisplay:10.37,2013-07-25 08:47:00,
2013-07-25 03:52:00,57.5,54.6,30.02,South,190,0.0,0.0,90,0.00,CLR,,0.00,0.0,WeatherDisplay:10.37,2013-07-25 08:52:00,
2013-07-25 03:57:00,58.1,54.9,30.02,South,190,0.0,0.0,89,0.00,CLR,,0.00,0.0,WeatherDisplay:10.37,2013-07-25 08:57:00,
2013-07-25 04:02:00,58.4,54.9,30.02,South,190,0.0,0.0,88,0.00,CLR,,0.00,0.0,WeatherDisplay:10.37,2013-07-25 09:02:00,
2013-07-25 04:07:00,58.9,55.0,30.02,South,190,0.0,0.0,87,0.00,CLR,,0.00,0.0,WeatherDisplay:10.37,2013-07-25 09:07:00,
2013-07-25 04:12:00,59.3,55.1,30.02,South,190,0.0,0.0,86,0.00,CLR,,0.00,0.0,WeatherDisplay:10.37,2013-07-25 09:12:00,
2013-07-25 04:17:00,59.6,55.1,30.01,South,190,0.0,0.0,85,0.00,CLR,,0.00,0.0,WeatherDisplay:10.37,2013-07-25 09:17:00,
2013-07-25 04:22:00,59.9,54.7,30.01,South,190,0.0,0.0,83,0.00,CLR,,0.00,0.0,WeatherDisplay:10.37,2013-07-25 09:22:00,
2013-07-25 04:27:00,60.1,54.9,30.01,South,190,0.0,0.0,83,0.00,CLR,,0.00,0.0,WeatherDisplay:10.37,2013-07-25 09:27:00,
2013-07-25 04:32:00,60.1,54.9,30.01,South,190,0.0,0.0,83,0.00,CLR,,0.00,0.0,WeatherDisplay:10.37,2013-07-25 09:32:00,
2013-07-25 04:37:00,60.1,54.9,30.01,South,190,0.0,0.0,83,0.00,CLR,,0.00,0.0,WeatherDisplay:10.37,2013-07-25 09:37:00,
2013-07-25 04:42:00,60.1,54.9,30.01,South,190,0.0,0.0,83,0.00,CLR,,0.00,0.0,WeatherDisplay:10.37,2013-07-25 09:42:00,
2013-07-25 04:47:00,60.1,54.9,30.01,South,190,0.0,0.0,83,0.00,CLR,,0.00,0.0,WeatherDisplay:10.37,2013-07-25 09:47:00,
2013-07-25 04:52:00,60.1,54.9,30.01,South,190,0.0,0.0,83,0.00,CLR,,0.00,0.0,WeatherDisplay:10.37,2013-07-25 09:52:00,
2013-07-25 04:57:00,59.9,54.7,30.01,South,190,0.0,0.0,83,0.00,CLR,,0.00,0.0,WeatherDisplay:10.37,2013-07-25 09:57:00,
2013-07-25 05:02:00,59.8,54.6,30.00,South,190,0.0,0.0,83,0.00,CLR,,0.00,0.0,WeatherDisplay:10.37,2013-07-25 10:02:00,
2013-07-25 05:07:00,59.7,54.5,30.00,South,190,0.0,0.0,83,0.00,CLR,,0.00,0.0,WeatherDisplay:10.37,2013-07-25 10:07:00,
2013-07-25 05:12:00,59.6,54.8,30.00,South,190,0.0,0.0,84,0.00,CLR,,0.00,0.0,WeatherDisplay:10.37,2013-07-25 10:12:00,
2013-07-25 05:17:00,59.6,54.8,30.01,South,190,0.0,0.0,84,0.00,CLR,,0.00,0.0,WeatherDisplay:10.37,2013-07-25 10:17:00,
2013-07-25 05:22:00,59.5,54.7,30.01,South,190,0.0,0.0,84,0.00,CLR,,0.00,0.0,WeatherDisplay:10.37,2013-07-25 10:22:00,
2013-07-25 05:27:00,59.5,55.0,30.01,South,190,0.0,0.0,85,0.00,CLR,,0.00,0.0,WeatherDisplay:10.37,2013-07-25 10:27:00,
2013-07-25 05:32:00,59.6,55.1,30.01,South,190,0.1,1.2,85,0.00,CLR,,0.00,0.0,WeatherDisplay:10.37,2013-07-25 10:32:00,
2013-07-25 05:37:00,59.8,55.3,30.01,South,190,0.1,1.2,85,0.00,CLR,,0.00,0.0,WeatherDisplay:10.37,2013-07-25 10:37:00,
2013-07-25 05:42:00,59.8,55.3,30.01,South,190,0.0,1.2,85,0.00,CLR,,0.00,0.0,WeatherDisplay:10.37,2013-07-25 10:42:00,
2013-07-25 05:47:00,59.9,55.4,30.01,South,190,0.3,2.3,85,0.00,CLR,,0.00,5.0,WeatherDisplay:10.37,2013-07-25 10:47:00,
2013-07-25 05:52:00,59.9,55.4,30.01,South,190,0.1,1.2,85,0.00,CLR,,0.00,7.0,WeatherDisplay:10.37,2013-07-25 10:52:00,
2013-07-25 05:57:00,60.1,55.6,30.01,South,189,0.0,0.0,85,0.00,CLR,,0.00,9.0,WeatherDisplay:10.37,2013-07-25 10:57:00,
2013-07-25 06:02:00,60.1,55.2,30.01,South,189,0.0,1.1,84,0.00,CLR,,0.00,11.0,WeatherDisplay:10.37,2013-07-25 11:02:00,
2013-07-25 06:07:00,60.1,55.2,30.01,South,189,0.0,2.3,84,0.00,CLR,,0.00,14.0,WeatherDisplay:10.37,2013-07-25 11:07:00,
2013-07-25 06:12:00,60.1,55.2,30.01,South,189,0.0,1.2,84,0.00,CLR,,0.00,18.0,WeatherDisplay:10.37,2013-07-25 11:12:00,
2013-07-25 06:17:00,59.9,55.1,30.01,South,188,0.2,2.3,84,0.00,CLR,,0.00,19.0,WeatherDisplay:10.37,2013-07-25 11:17:00,
2013-07-25 06:22:00,59.9,55.1,30.01,South,188,0.1,1.2,84,0.00,CLR,,0.00,21.0,WeatherDisplay:10.37,2013-07-25 11:22:00,
2013-07-25 06:27:00,60.1,55.6,30.01,SSW,196,0.1,11.5,85,0.00,CLR,,0.00,25.0,WeatherDisplay:10.37,2013-07-25 11:27:00,
2013-07-25 06:32:00,60.1,55.2,30.01,SSW,195,0.0,1.2,84,0.00,CLR,,0.00,26.0,WeatherDisplay:10.37,2013-07-25 11:32:00,
2013-07-25 06:37:00,60.1,55.2,30.01,South,190,0.9,3.5,84,0.00,CLR,,0.00,28.0,WeatherDisplay:10.37,2013-07-25 11:37:00,
2013-07-25 06:42:00,60.2,55.3,30.01,South,171,0.5,4.6,84,0.00,CLR,,0.00,30.0,WeatherDisplay:10.37,2013-07-25 11:42:00,
2013-07-25 06:47:00,60.2,55.3,30.02,South,184,1.4,5.5,84,0.00,CLR,,0.00,32.0,WeatherDisplay:10.37,2013-07-25 11:47:00,
2013-07-25 06:52:00,60.4,55.5,30.02,South,184,0.0,0.0,84,0.00,CLR,,0.00,134.0,WeatherDisplay:10.37,2013-07-25 11:52:00,
2013-07-25 06:57:00,60.5,55.6,30.02,SSW,197,2.1,6.6,84,0.00,CLR,,0.00,109.0,WeatherDisplay:10.37,2013-07-25 11:57:00,
2013-07-25 07:02:00,60.9,55.7,30.02,South,189,0.0,5.8,83,0.00,CLR,,0.00,174.0,WeatherDisplay:10.37,2013-07-25 12:02:00,
2013-07-25 07:08:00,61.0,55.8,30.02,South,188,0.2,2.2,83,0.00,CLR,,0.00,188.0,WeatherDisplay:10.37,2013-07-25 12:08:00,
2013-07-25 07:13:00,61.2,56.0,30.02,South,188,0.0,0.0,83,0.00,CLR,,0.00,206.0,WeatherDisplay:10.37,2013-07-25 12:13:00,
2013-07-25 07:18:00,61.3,56.1,30.02,South,183,0.0,1.2,83,0.00,CLR,,0.00,221.0,WeatherDisplay:10.37,2013-07-25 12:18:00,
2013-07-25 07:23:00,61.6,56.0,30.02,South,183,0.0,0.0,82,0.00,CLR,,0.00,234.0,WeatherDisplay:10.37,2013-07-25 12:23:00,
2013-07-25 07:28:00,62.0,56.8,30.02,South,183,0.0,0.0,83,0.00,CLR,,0.00,248.0,WeatherDisplay:10.37,2013-07-25 12:28:00,
2013-07-25 07:33:00,62.1,56.2,30.02,South,186,0.1,2.2,81,0.00,CLR,,0.00,260.0,WeatherDisplay:10.37,2013-07-25 12:33:00,
2013-07-25 07:38:00,62.4,56.5,30.02,South,186,0.0,0.0,81,0.00,CLR,,0.00,278.0,WeatherDisplay:10.37,2013-07-25 12:38:00,
2013-07-25 07:43:00,62.7,56.8,30.02,South,187,0.0,1.1,81,0.00,CLR,,0.00,290.0,WeatherDisplay:10.37,2013-07-25 12:43:00,
2013-07-25 07:48:00,62.9,57.0,30.02,South,187,0.0,0.0,81,0.00,CLR,,0.00,304.0,WeatherDisplay:10.37,2013-07-25 12:48:00,
2013-07-25 07:53:00,63.2,56.9,30.02,South,185,0.1,3.5,80,0.00,CLR,,0.00,323.0,WeatherDisplay:10.37,2013-07-25 12:53:00,
2013-07-25 07:58:00,63.5,57.2,30.02,South,180,0.1,1.2,80,0.00,CLR,,0.00,339.0,WeatherDisplay:10.37,2013-07-25 12:58:00,
2013-07-25 08:03:00,63.9,57.3,30.02,South,186,0.6,3.5,79,0.00,CLR,,0.00,360.0,WeatherDisplay:10.37,2013-07-25 13:03:00,
2013-07-25 08:08:00,64.2,57.5,30.02,South,186,0.0,1.1,79,0.00,CLR,,0.00,413.0,WeatherDisplay:10.37,2013-07-25 13:08:00,
2013-07-25 08:13:00,64.7,57.7,30.02,South,186,0.0,0.0,78,0.00,CLR,,0.00,439.0,WeatherDisplay:10.37,2013-07-25 13:13:00,
2013-07-25 08:18:00,64.8,57.4,30.02,SSW,194,4.1,12.7,77,0.00,CLR,,0.00,181.0,WeatherDisplay:10.37,2013-07-25 13:18:00,
2013-07-25 08:23:00,65.2,57.8,30.02,South,178,2.1,6.9,77,0.00,CLR,,0.00,329.0,WeatherDisplay:10.37,2013-07-25 13:23:00,
2013-07-25 08:28:00,65.3,57.9,30.02,South,178,4.0,6.9,77,0.00,CLR,,0.00,376.0,WeatherDisplay:10.37,2013-07-25 13:28:00,
2013-07-25 08:33:00,65.6,57.8,30.02,South,184,2.4,6.9,76,0.00,CLR,,0.00,287.0,WeatherDisplay:10.37,2013-07-25 13:33:00,
2013-07-25 08:38:00,66.0,58.2,30.02,SSW,203,0.2,1.1,76,0.00,CLR,,0.00,243.0,WeatherDisplay:10.37,2013-07-25 13:38:00,
2013-07-25 08:43:00,66.1,58.3,30.02,SW,215,1.9,8.1,76,0.00,BKN,,0.00,221.0,WeatherDisplay:10.37,2013-07-25 13:43:00,
2013-07-25 08:48:00,66.3,58.5,30.03,SSW,211,0.0,0.0,76,0.00,BKN,,0.00,197.0,WeatherDisplay:10.37,2013-07-25 13:48:00,
2013-07-25 08:53:00,66.4,59.0,30.03,SSW,211,0.0,2.3,77,0.00,BKN,,0.00,218.0,WeatherDisplay:10.37,2013-07-25 13:53:00,
2013-07-25 08:58:00,66.6,58.8,30.03,South,182,0.0,0.0,76,0.00,BKN,,0.00,246.0,WeatherDisplay:10.37,2013-07-25 13:58:00,
2013-07-25 09:03:00,66.8,59.0,30.02,South,184,0.1,2.2,76,0.00,BKN,,0.00,230.0,WeatherDisplay:10.37,2013-07-25 14:03:00,
2013-07-25 09:08:00,67.1,59.3,30.02,South,173,0.0,0.0,76,0.00,BKN,,0.00,707.0,WeatherDisplay:10.37,2013-07-25 14:08:00,
2013-07-25 09:13:00,67.6,59.4,30.02,South,175,2.1,5.8,75,0.00,FEW,,0.00,392.0,WeatherDisplay:10.37,2013-07-25 14:13:00,
2013-07-25 09:18:00,67.8,59.6,30.03,South,180,0.0,3.5,75,0.00,BKN,,0.00,287.0,WeatherDisplay:10.37,2013-07-25 14:18:00,
2013-07-25 09:23:00,67.9,59.7,30.03,South,172,1.9,6.9,75,0.00,BKN,,0.00,309.0,WeatherDisplay:10.37,2013-07-25 14:23:00,
2013-07-25 09:28:00,68.3,59.7,30.03,SSW,202,0.0,0.0,74,0.00,BKN,,0.00,271.0,WeatherDisplay:10.37,2013-07-25 14:28:00,
2013-07-25 09:33:00,68.8,60.2,30.03,SSW,196,0.0,1.2,74,0.00,BKN,,0.00,302.0,WeatherDisplay:10.37,2013-07-25 14:33:00,
2013-07-25 09:38:00,68.8,59.4,30.03,South,186,0.5,3.5,72,0.00,BKN,,0.00,265.0,WeatherDisplay:10.37,2013-07-25 14:38:00,
2013-07-25 09:43:00,68.9,59.5,30.03,South,190,0.0,1.2,72,0.00,BKN,,0.00,195.0,WeatherDisplay:10.37,2013-07-25 14:43:00,
2013-07-25 09:48:00,68.8,59.4,30.01,SSE,167,3.0,6.6,72,0.00,BKN,,0.00,213.0,WeatherDisplay:10.37,2013-07-25 14:48:00,
2013-07-25 09:53:00,68.8,59.8,30.01,South,186,0.0,0.0,73,0.00,BKN,,0.00,269.0,WeatherDisplay:10.37,2013-07-25 14:53:00,
2013-07-25 09:58:00,68.8,59.4,30.01,South,180,0.1,1.2,72,0.00,BKN,,0.00,294.0,WeatherDisplay:10.37,2013-07-25 14:58:00,
2013-07-25 10:03:00,68.8,59.8,30.01,South,182,0.8,6.6,73,0.00,BKN,,0.00,346.0,WeatherDisplay:10.37,2013-07-25 15:03:00,
2013-07-25 10:08:00,68.9,59.9,30.01,SSW,208,0.0,1.1,73,0.00,BKN,,0.00,388.0,WeatherDisplay:10.37,2013-07-25 15:08:00,
2013-07-25 10:13:00,69.1,59.7,30.01,South,169,0.0,0.0,72,0.00,BKN,,0.00,336.0,WeatherDisplay:10.37,2013-07-25 15:13:00,
2013-07-25 10:18:00,69.4,60.4,30.02,South,169,0.0,0.0,73,0.00,BKN,,0.00,258.0,WeatherDisplay:10.37,2013-07-25 15:18:00,
2013-07-25 10:23:00,69.6,60.6,30.02,South,169,0.1,4.4,73,0.00,BKN,,0.00,237.0,WeatherDisplay:10.37,2013-07-25 15:23:00,
2013-07-25 10:28:00,69.4,60.4,30.02,South,188,0.8,3.3,73,0.00,BKN,,0.00,146.0,WeatherDisplay:10.37,2013-07-25 15:28:00,
2013-07-25 10:33:00,69.6,60.6,30.03,South,188,0.0,0.0,73,0.00,BKN,,0.00,188.0,WeatherDisplay:10.37,2013-07-25 15:33:00,
2013-07-25 10:38:00,69.8,60.8,30.03,South,188,0.0,0.0,73,0.00,BKN,,0.00,220.0,WeatherDisplay:10.37,2013-07-25 15:38:00,
2013-07-25 10:43:00,69.6,60.6,30.03,South,188,0.0,0.0,73,0.00,BKN,,0.00,167.0,WeatherDisplay:10.37,2013-07-25 15:43:00,
2013-07-25 10:48:00,69.4,60.4,30.03,South,188,1.6,5.5,73,0.00,BKN,,0.00,276.0,WeatherDisplay:10.37,2013-07-25 15:48:00,
2013-07-25 10:53:00,69.8,61.5,30.03,South,187,0.0,0.0,75,0.00,BKN,,0.00,243.0,WeatherDisplay:10.37,2013-07-25 15:53:00,
2013-07-25 10:58:00,70.1,61.4,30.03,South,185,0.1,1.1,74,0.00,BKN,,0.00,733.0,WeatherDisplay:10.37,2013-07-25 15:58:00,
2013-07-25 11:03:00,71.1,60.8,30.03,SW,218,0.4,4.6,70,0.00,CLR,,0.00,921.0,WeatherDisplay:10.37,2013-07-25 16:03:00,
2013-07-25 11:08:00,71.8,61.1,30.03,South,190,0.0,0.0,69,0.00,SCT,,0.00,584.0,WeatherDisplay:10.37,2013-07-25 16:08:00,
2013-07-25 11:13:00,72.5,61.3,30.03,South,182,0.6,5.8,68,0.00,SCT,,0.00,902.0,WeatherDisplay:10.37,2013-07-25 16:13:00,
2013-07-25 11:18:00,72.7,61.5,30.02,SW,226,2.0,5.8,68,0.00,CLR,,0.00,995.0,WeatherDisplay:10.37,2013-07-25 16:18:00,
2013-07-25 11:23:00,72.3,61.6,30.02,South,184,2.5,8.8,69,0.00,FEW,,0.00,418.0,WeatherDisplay:10.37,2013-07-25 16:23:00,
2013-07-25 11:28:00,72.1,61.4,30.02,South,190,3.4,8.1,69,0.00,SCT,,0.00,524.0,WeatherDisplay:10.37,2013-07-25 16:28:00,
2013-07-25 11:33:00,72.0,61.7,30.03,South,191,3.0,6.9,70,0.00,BKN,,0.00,541.0,WeatherDisplay:10.37,2013-07-25 16:33:00,
2013-07-25 11:38:00,72.1,61.8,30.03,South,182,0.0,0.0,70,0.00,SCT,,0.00,591.0,WeatherDisplay:10.37,2013-07-25 16:38:00,
2013-07-25 11:43:00,72.0,61.7,30.03,South,189,2.7,8.8,70,0.00,BKN,,0.00,192.0,WeatherDisplay:10.37,2013-07-25 16:43:00,
2013-07-25 11:48:00,71.6,61.3,30.02,SSE,165,1.6,5.5,70,0.00,BKN,,0.00,174.0,WeatherDisplay:10.37,2013-07-25 16:48:00,
2013-07-25 11:53:00,71.5,61.2,30.02,South,188,0.0,1.1,70,0.00,BKN,,0.00,165.0,WeatherDisplay:10.37,2013-07-25 16:53:00,
2013-07-25 11:58:00,71.5,61.6,30.02,South,179,0.7,4.4,71,0.00,BKN,,0.00,248.0,WeatherDisplay:10.37,2013-07-25 16:58:00,
2013-07-25 12:03:00,71.3,61.8,30.01,South,184,1.5,6.6,72,0.00,BKN,,0.00,323.0,WeatherDisplay:10.37,2013-07-25 17:03:00,
2013-07-25 12:08:00,71.5,62.0,30.01,South,187,0.1,2.2,72,0.00,BKN,,0.00,346.0,WeatherDisplay:10.37,2013-07-25 17:08:00,
2013-07-25 12:13:00,71.5,62.4,30.01,South,169,0.0,1.1,73,0.00,BKN,,0.00,279.0,WeatherDisplay:10.37,2013-07-25 17:13:00,
2013-07-25 12:18:00,71.1,61.6,30.01,South,182,0.8,3.3,72,0.00,BKN,,0.00,301.0,WeatherDisplay:10.37,2013-07-25 17:18:00,
2013-07-25 12:23:00,70.9,61.4,30.01,South,182,0.0,4.6,72,0.00,BKN,,0.00,325.0,WeatherDisplay:10.37,2013-07-25 17:23:00,
2013-07-25 12:28:00,71.3,62.2,30.01,SSW,202,0.1,5.5,73,0.00,BKN,,0.00,366.0,WeatherDisplay:10.37,2013-07-25 17:28:00,
2013-07-25 12:33:00,71.8,62.3,30.01,South,180,2.9,8.1,72,0.00,BKN,,0.00,388.0,WeatherDisplay:10.37,2013-07-25 17:33:00,
2013-07-25 12:38:00,72.1,62.2,30.01,SSW,207,0.7,4.6,71,0.00,BKN,,0.00,519.0,WeatherDisplay:10.37,2013-07-25 17:38:00,
2013-07-25 12:43:00,72.8,62.8,30.01,South,170,0.5,4.6,71,0.00,BKN,,0.00,287.0,WeatherDisplay:10.37,2013-07-25 17:43:00,
2013-07-25 12:44:00,72.8,62.8,30.01,South,170,0.5,4.6,71,0.00,BKN,,0.00,287.0,WeatherDisplay:10.37,2013-07-25 17:44:00,
2013-07-25 12:49:00,74.0,63.6,30.00,South,181,0.1,4.6,70,0.00,SCT,,0.00,928.0,WeatherDisplay:10.37,2013-07-25 17:49:00,
2013-07-25 12:54:00,74.9,62.8,30.00,South,183,0.7,5.8,66,0.00,FEW,,0.00,947.0,WeatherDisplay:10.37,2013-07-25 17:54:00,
2013-07-25 12:59:00,75.6,64.3,30.00,SSW,200,0.0,8.1,68,0.00,FEW,,0.00,905.0,WeatherDisplay:10.37,2013-07-25 17:59:00,
2013-07-25 13:04:00,76.1,63.5,30.00,SSW,196,2.2,8.1,65,0.00,SCT,,0.00,912.0,WeatherDisplay:10.37,2013-07-25 18:04:00,
2013-07-25 13:09:00,76.1,63.5,30.00,SSE,167,5.5,10.4,65,0.00,FEW,,0.00,1014.0,WeatherDisplay:10.37,2013-07-25 18:09:00,
2013-07-25 13:14:00,75.8,63.2,30.00,SSW,202,2.6,9.2,65,0.00,SCT,,0.00,452.0,WeatherDisplay:10.37,2013-07-25 18:14:00,
2013-07-25 13:19:00,75.1,62.5,30.00,South,172,3.5,6.9,65,0.00,BKN,,0.00,422.0,WeatherDisplay:10.37,2013-07-25 18:19:00,
2013-07-25 13:24:00,75.3,63.2,30.00,South,180,3.1,11.5,66,0.00,BKN,,0.00,390.0,WeatherDisplay:10.37,2013-07-25 18:24:00,
2013-07-25 13:29:00,75.1,63.4,30.00,South,175,3.1,10.4,67,0.00,BKN,,0.00,381.0,WeatherDisplay:10.37,2013-07-25 18:29:00,
2013-07-25 13:34:00,75.6,63.4,30.00,South,182,1.5,10.4,66,0.00,SCT,,0.00,923.0,WeatherDisplay:10.37,2013-07-25 18:34:00,
2013-07-25 13:39:00,75.8,62.8,30.00,South,177,6.9,11.5,64,0.00,SCT,,0.00,387.0,WeatherDisplay:10.37,2013-07-25 18:39:00,
2013-07-25 13:44:00,75.8,63.2,30.00,SSW,205,2.2,12.7,65,0.00,BKN,,0.00,221.0,WeatherDisplay:10.37,2013-07-25 18:44:00,
2013-07-25 13:49:00,75.6,63.4,30.00,South,184,0.0,5.8,66,0.00,BKN,,0.00,329.0,WeatherDisplay:10.37,2013-07-25 18:49:00,
2013-07-25 13:54:00,75.8,62.8,30.00,SSW,207,5.7,12.7,64,0.00,BKN,,0.00,691.0,WeatherDisplay:10.37,2013-07-25 18:54:00,
2013-07-25 13:59:00,76.5,63.4,29.99,SSW,196,7.7,12.7,64,0.00,SCT,,0.00,721.0,WeatherDisplay:10.37,2013-07-25 18:59:00,
2013-07-25 14:04:00,76.7,63.2,29.99,SW,229,3.2,8.8,63,0.00,SCT,,0.00,721.0,WeatherDisplay:10.37,2013-07-25 19:04:00,
2013-07-25 14:09:00,77.0,63.4,29.99,SSE,162,1.5,7.7,63,0.00,SCT,,0.00,719.0,WeatherDisplay:10.37,2013-07-25 19:09:00,
2013-07-25 14:14:00,77.2,64.1,29.98,South,178,1.1,7.7,64,0.00,SCT,,0.00,673.0,WeatherDisplay:10.37,2013-07-25 19:14:00,
2013-07-25 14:19:00,77.2,63.6,29.98,SSW,207,2.7,11.0,63,0.00,SCT,,0.00,703.0,WeatherDisplay:10.37,2013-07-25 19:19:00,
2013-07-25 14:24:00,77.0,63.4,29.98,South,185,4.4,8.1,63,0.00,SCT,,0.00,828.0,WeatherDisplay:10.37,2013-07-25 19:24:00,
2013-07-25 14:29:00,77.6,64.5,29.98,SSW,207,3.7,9.2,64,0.00,SCT,,0.00,694.0,WeatherDisplay:10.37,2013-07-25 19:29:00,
2013-07-25 14:34:00,77.4,64.3,29.98,South,187,1.5,7.7,64,0.00,SCT,,0.00,805.0,WeatherDisplay:10.37,2013-07-25 19:34:00,
2013-07-25 14:39:00,77.7,64.1,29.98,SSW,197,0.0,5.8,63,0.00,SCT,,0.00,728.0,WeatherDisplay:10.37,2013-07-25 19:39:00,
2013-07-25 14:44:00,77.9,64.3,29.98,South,182,2.3,7.7,63,0.00,SCT,,0.00,603.0,WeatherDisplay:10.37,2013-07-25 19:44:00,
2013-07-25 14:49:00,77.4,63.4,29.98,South,175,4.5,11.0,62,0.00,BKN,,0.00,427.0,WeatherDisplay:10.37,2013-07-25 19:49:00,
2013-07-25 14:54:00,77.0,63.9,29.98,South,184,1.6,5.8,64,0.00,BKN,,0.00,374.0,WeatherDisplay:10.37,2013-07-25 19:54:00,
2013-07-25 14:59:00,76.7,63.6,29.97,SSW,194,2.1,6.9,64,0.00,SCT,,0.00,401.0,WeatherDisplay:10.37,2013-07-25 19:59:00,
2013-07-25 15:04:00,76.8,64.1,29.97,South,169,1.5,5.5,65,0.00,BKN,,0.00,473.0,WeatherDisplay:10.37,2013-07-25 20:04:00,
2013-07-25 15:09:00,76.8,63.7,29.97,SSW,193,0.5,3.3,64,0.00,BKN,,0.00,543.0,WeatherDisplay:10.37,2013-07-25 20:09:00,
2013-07-25 15:14:00,77.4,64.3,29.98,South,191,1.8,8.1,64,0.00,BKN,,0.00,343.0,WeatherDisplay:10.37,2013-07-25 20:14:00,
2013-07-25 15:19:00,77.2,65.0,29.98,South,171,3.3,6.9,66,0.00,BKN,,0.00,279.0,WeatherDisplay:10.37,2013-07-25 20:19:00,
2013-07-25 15:24:00,76.7,64.0,29.98,SSE,154,6.5,9.9,65,0.00,BKN,,0.00,248.0,WeatherDisplay:10.37,2013-07-25 20:24:00,
2013-07-25 15:29:00,76.1,63.9,29.98,SSE,167,0.0,11.5,66,0.00,BKN,,0.00,230.0,WeatherDisplay:10.37,2013-07-25 20:29:00,
2013-07-25 15:34:00,76.0,64.2,29.97,SSW,205,3.5,10.4,67,0.00,BKN,,0.00,190.0,WeatherDisplay:10.37,2013-07-25 20:34:00,
2013-07-25 15:39:00,75.8,64.5,29.97,SW,218,2.7,8.8,68,0.00,BKN,,0.00,171.0,WeatherDisplay:10.37,2013-07-25 20:39:00,
2013-07-25 15:44:00,75.8,64.9,29.97,South,188,0.4,6.6,69,0.00,BKN,,0.00,148.0,WeatherDisplay:10.37,2013-07-25 20:44:00,
2013-07-25 15:49:00,75.8,64.9,29.98,South,179,0.0,1.2,69,0.00,BKN,,0.00,120.0,WeatherDisplay:10.37,2013-07-25 20:49:00,
2013-07-25 15:54:00,75.6,65.1,29.98,SSE,167,2.2,7.7,70,0.00,BKN,,0.00,111.0,WeatherDisplay:10.37,2013-07-25 20:54:00,
2013-07-25 15:59:00,75.4,65.3,29.98,South,175,0.1,1.2,71,0.00,BKN,,0.00,72.0,WeatherDisplay:10.37,2013-07-25 20:59:00,
2013-07-25 16:04:00,75.4,65.3,29.97,South,179,0.0,6.9,71,0.00,BKN,,0.00,100.0,WeatherDisplay:10.37,2013-07-25 21:04:00,
2013-07-25 16:09:00,75.3,65.2,29.97,South,178,0.0,0.0,71,0.00,BKN,,0.00,98.0,WeatherDisplay:10.37,2013-07-25 21:09:00,
2013-07-25 16:14:00,75.3,65.6,29.97,South,189,0.3,3.3,72,0.00,BKN,,0.00,83.0,WeatherDisplay:10.37,2013-07-25 21:14:00,
2013-07-25 16:19:00,75.3,65.6,29.97,South,185,0.0,1.2,72,0.00,BKN,,0.00,74.0,WeatherDisplay:10.37,2013-07-25 21:19:00,
2013-07-25 16:24:00,75.1,65.9,29.97,South,186,0.0,0.0,73,0.00,BKN,,0.00,62.0,WeatherDisplay:10.37,2013-07-25 21:24:00,
2013-07-25 16:29:00,74.9,65.7,29.97,South,185,1.5,4.6,73,0.00,OVC,,0.00,51.0,WeatherDisplay:10.37,2013-07-25 21:29:00,
2013-07-25 16:34:00,74.9,65.7,29.97,South,185,0.0,1.2,73,0.00,OVC,,0.00,46.0,WeatherDisplay:10.37,2013-07-25 21:34:00,
2013-07-25 16:39:00,74.7,65.9,29.97,South,187,0.0,4.6,74,0.00,OVC,,0.00,39.0,WeatherDisplay:10.37,2013-07-25 21:39:00,
2013-07-25 16:44:00,74.4,65.6,29.97,South,185,0.0,1.2,74,0.00,OVC,,0.00,37.0,WeatherDisplay:10.37,2013-07-25 21:44:00,
2013-07-25 16:49:00,74.4,66.0,29.97,South,179,0.1,1.2,75,0.00,OVC,,0.00,37.0,WeatherDisplay:10.37,2013-07-25 21:49:00,
2013-07-25 16:54:00,74.2,66.1,29.97,SSW,192,0.9,5.5,76,0.00,OVC,,0.00,33.0,WeatherDisplay:10.37,2013-07-25 21:54:00,
2013-07-25 16:59:00,73.9,65.9,29.97,South,187,1.0,4.6,76,0.00,OVC,,0.00,28.0,WeatherDisplay:10.37,2013-07-25 21:59:00,
2013-07-25 17:04:00,73.9,66.2,29.97,South,187,0.0,0.0,77,0.00,OVC,,0.00,25.0,WeatherDisplay:10.37,2013-07-25 22:04:00,
2013-07-25 17:09:00,73.7,66.4,29.97,South,186,0.5,5.5,78,0.00,OVC,,0.00,25.0,WeatherDisplay:10.37,2013-07-25 22:09:00,
2013-07-25 17:14:00,73.5,66.6,29.97,South,182,0.0,1.2,79,0.00,-RA,,0.00,26.0,WeatherDisplay:10.37,2013-07-25 22:14:00,
2013-07-25 17:19:00,73.0,66.1,29.97,SW,229,2.6,9.2,79,0.00,-RA,,0.00,25.0,WeatherDisplay:10.37,2013-07-25 22:19:00,
2013-07-25 17:24:00,72.3,66.1,29.97,SSW,213,0.4,5.8,81,0.00,OVC,,0.00,30.0,WeatherDisplay:10.37,2013-07-25 22:24:00,
2013-07-25 17:29:00,71.3,65.9,29.99,WSW,242,0.8,2.3,83,0.00,OVC,,0.00,30.0,WeatherDisplay:10.37,2013-07-25 22:29:00,
2013-07-25 17:34:00,70.3,65.2,29.99,SSW,211,6.7,16.1,84,0.00,OVC,,0.00,25.0,WeatherDisplay:10.37,2013-07-25 22:34:00,
2013-07-25 17:39:00,69.6,64.9,29.99,SSE,165,0.4,6.9,85,0.00,OVC,,0.00,26.0,WeatherDisplay:10.37,2013-07-25 22:39:00,
2013-07-25 17:44:00,68.8,64.1,29.98,South,173,0.0,1.2,85,0.00,OVC,,0.00,33.0,WeatherDisplay:10.37,2013-07-25 22:44:00,
2013-07-25 17:49:00,68.6,63.9,29.98,SSW,202,1.4,8.1,85,0.00,OVC,,0.00,35.0,WeatherDisplay:10.37,2013-07-25 22:49:00,
2013-07-25 17:54:00,68.6,63.9,29.98,SSW,194,0.0,0.0,85,0.00,OVC,,0.00,37.0,WeatherDisplay:10.37,2013-07-25 22:54:00,
2013-07-25 17:59:00,68.6,63.9,29.98,SW,214,1.3,4.4,85,0.00,OVC,,0.00,40.0,WeatherDisplay:10.37,2013-07-25 22:59:00,
2013-07-25 18:14:00,68.1,63.8,29.98,SSW,208,3.3,6.9,86,0.02,-RA,,0.02,26.0,WeatherDisplay:10.37,2013-07-25 23:14:00,
2013-07-25 18:19:00,67.9,63.2,29.98,South,187,1.1,11.5,85,0.02,-RA,,0.02,21.0,WeatherDisplay:10.37,2013-07-25 23:19:00,
2013-07-25 18:24:00,67.8,63.1,29.98,SSW,202,6.1,10.4,85,0.02,OVC,,0.02,18.0,WeatherDisplay:10.37,2013-07-25 23:24:00,
2013-07-25 18:29:00,67.6,62.9,29.98,SSE,166,0.0,1.2,85,0.02,OVC,,0.02,19.0,WeatherDisplay:10.37,2013-07-25 23:29:00,
2013-07-25 18:34:00,67.4,62.7,29.95,SW,234,0.2,2.2,85,0.02,OVC,,0.02,25.0,WeatherDisplay:10.37,2013-07-25 23:34:00,
2013-07-25 18:39:00,67.1,62.4,29.95,South,171,0.0,1.2,85,0.02,OVC,,0.02,30.0,WeatherDisplay:10.37,2013-07-25 23:39:00,
2013-07-25 18:44:00,66.9,62.2,29.96,West,268,0.3,2.2,85,0.02,OVC,,0.02,32.0,WeatherDisplay:10.37,2013-07-25 23:44:00,
2013-07-25 18:49:00,66.9,62.2,29.96,WSW,252,0.7,4.6,85,0.02,OVC,,0.02,26.0,WeatherDisplay:10.37,2013-07-25 23:49:00,
2013-07-25 18:54:00,66.8,61.8,29.96,SSW,202,1.2,5.8,84,0.02,OVC,,0.02,26.0,WeatherDisplay:10.37,2013-07-25 23:54:00,
2013-07-25 18:59:00,66.8,61.8,29.96,South,191,0.0,1.2,84,0.02,OVC,,0.02,25.0,WeatherDisplay:10.37,2013-07-25 23:59:00,
2013-07-25 19:04:00,66.8,62.1,29.96,SW,219,0.2,3.3,85,0.02,CLR,,0.02,21.0,WeatherDisplay:10.37,2013-07-26 00:04:00,
2013-07-25 19:09:00,66.8,62.1,29.96,SSE,155,0.0,1.2,85,0.00,CLR,,0.02,21.0,WeatherDisplay:10.37,2013-07-26 00:09:00,
2013-07-25 19:14:00,66.8,62.5,29.96,South,175,0.0,0.0,86,0.00,CLR,,0.02,23.0,WeatherDisplay:10.37,2013-07-26 00:14:00,
2013-07-25 19:19:00,66.6,62.3,29.96,SSW,199,0.0,0.0,86,0.00,CLR,,0.02,37.0,WeatherDisplay:10.37,2013-07-26 00:19:00,
2013-07-25 19:24:00,66.6,62.3,29.96,South,184,0.0,0.0,86,0.00,CLR,,0.02,30.0,WeatherDisplay:10.37,2013-07-26 00:24:00,
2013-07-25 19:29:00,66.6,62.3,29.96,South,180,0.0,1.2,86,0.00,CLR,,0.02,26.0,WeatherDisplay:10.37,2013-07-26 00:29:00,
2013-07-25 19:34:00,66.8,62.5,29.97,South,180,0.0,1.2,86,0.00,CLR,,0.02,16.0,WeatherDisplay:10.37,2013-07-26 00:34:00,
2013-07-25 19:40:00,66.8,62.5,29.97,South,180,0.0,1.2,86,0.00,CLR,,0.02,16.0,WeatherDisplay:10.37,2013-07-26 00:40:00,
2013-07-25 19:45:00,66.8,62.5,29.96,SSW,194,0.0,0.0,86,0.00,CLR,,0.02,21.0,WeatherDisplay:10.37,2013-07-26 00:45:00,
2013-07-25 19:50:00,66.6,62.3,29.96,South,182,0.0,1.1,86,0.00,CLR,,0.02,25.0,WeatherDisplay:10.37,2013-07-26 00:50:00,
2013-07-25 19:55:00,66.4,62.1,29.96,SSW,192,0.0,0.0,86,0.00,CLR,,0.02,19.0,WeatherDisplay:10.37,2013-07-26 00:55:00,
2013-07-25 20:00:00,66.4,62.1,29.95,South,185,0.0,1.2,86,0.00,CLR,,0.02,12.0,WeatherDisplay:10.37,2013-07-26 01:00:00,
2013-07-25 20:05:00,66.4,62.1,29.95,South,170,0.0,0.0,86,0.00,CLR,,0.02,12.0,WeatherDisplay:10.37,2013-07-26 01:05:00,
2013-07-25 20:10:00,66.4,61.8,29.95,South,178,0.0,0.0,85,0.00,CLR,,0.02,11.0,WeatherDisplay:10.37,2013-07-26 01:10:00,
2013-07-25 20:15:00,66.4,62.1,29.95,South,178,0.1,2.3,86,0.00,CLR,,0.02,9.0,WeatherDisplay:10.37,2013-07-26 01:15:00,
2013-07-25 20:20:00,66.3,61.7,29.95,South,177,0.7,2.3,85,0.00,CLR,,0.02,9.0,WeatherDisplay:10.37,2013-07-26 01:20:00,
2013-07-25 20:25:00,66.3,61.7,29.95,SSW,193,0.1,1.1,85,0.00,CLR,,0.02,7.0,WeatherDisplay:10.37,2013-07-26 01:25:00,
2013-07-25 20:30:00,66.4,61.4,29.95,South,176,0.7,4.4,84,0.00,CLR,,0.02,0.0,WeatherDisplay:10.37,2013-07-26 01:30:00,
2013-07-25 20:35:00,66.4,61.1,29.95,SSW,193,1.6,6.6,83,0.00,CLR,,0.02,0.0,WeatherDisplay:10.37,2013-07-26 01:35:00,
2013-07-25 20:40:00,66.4,61.1,29.95,South,180,0.2,3.5,83,0.00,CLR,,0.02,0.0,WeatherDisplay:10.37,2013-07-26 01:40:00,
2013-07-25 20:45:00,66.4,61.1,29.95,South,184,0.6,5.5,83,0.00,CLR,,0.02,0.0,WeatherDisplay:10.37,2013-07-26 01:45:00,
2013-07-25 20:50:00,66.3,61.3,29.95,SSW,198,0.0,1.2,84,0.00,CLR,,0.02,0.0,WeatherDisplay:10.37,2013-07-26 01:50:00,
2013-07-25 20:55:00,66.3,61.3,29.95,South,186,0.0,0.0,84,0.00,CLR,,0.02,0.0,WeatherDisplay:10.37,2013-07-26 01:55:00,
2013-07-25 21:00:00,66.1,61.1,29.95,South,186,0.0,0.0,84,0.00,CLR,,0.02,0.0,WeatherDisplay:10.37,2013-07-26 02:00:00,
2013-07-25 21:05:00,66.1,61.1,29.95,South,186,0.1,1.2,84,0.00,,,0.02,0.0,WeatherDisplay:10.37,2013-07-26 02:05:00,
2013-07-25 21:10:00,66.0,61.0,29.95,SSW,200,2.5,5.8,84,0.00,,,0.02,0.0,WeatherDisplay:10.37,2013-07-26 02:10:00,
2013-07-25 21:15:00,66.0,61.0,29.94,South,180,0.0,0.0,84,0.00,,,0.02,0.0,WeatherDisplay:10.37,2013-07-26 02:15:00,
2013-07-25 21:20:00,65.8,60.8,29.94,SSW,193,1.0,8.1,84,0.00,,,0.02,0.0,WeatherDisplay:10.37,2013-07-26 02:20:00,
2013-07-25 21:25:00,65.8,60.8,29.94,SSW,193,0.1,1.2,84,0.00,,,0.02,0.0,WeatherDisplay:10.37,2013-07-26 02:25:00,
2013-07-25 21:30:00,65.6,60.3,29.95,South,180,0.9,3.3,83,0.00,,,0.02,0.0,WeatherDisplay:10.37,2013-07-26 02:30:00,
2013-07-25 21:35:00,65.6,60.3,29.95,South,184,0.6,3.3,83,0.00,,,0.02,0.0,WeatherDisplay:10.37,2013-07-26 02:35:00,
2013-07-25 21:40:00,65.6,60.6,29.95,South,182,1.9,4.6,84,0.00,,,0.02,0.0,WeatherDisplay:10.37,2013-07-26 02:40:00,
2013-07-25 21:45:00,65.6,60.6,29.95,South,181,0.1,1.2,84,0.00,,,0.02,0.0,WeatherDisplay:10.37,2013-07-26 02:45:00,
2013-07-25 21:50:00,65.6,60.6,29.95,South,182,0.1,1.2,84,0.00,,,0.02,0.0,WeatherDisplay:10.37,2013-07-26 02:50:00,
2013-07-25 21:55:00,65.6,60.6,29.95,South,182,0.0,1.2,84,0.00,,,0.02,0.0,WeatherDisplay:10.37,2013-07-26 02:55:00,
2013-07-25 22:00:00,65.5,60.5,29.96,South,182,0.0,0.0,84,0.00,,,0.02,0.0,WeatherDisplay:10.37,2013-07-26 03:00:00,
2013-07-25 22:05:00,65.5,60.5,29.96,South,182,0.0,0.0,84,0.00,,,0.02,0.0,WeatherDisplay:10.37,2013-07-26 03:05:00,
2013-07-25 22:10:00,65.5,60.5,29.96,SSW,196,0.4,4.6,84,0.00,,,0.02,0.0,WeatherDisplay:10.37,2013-07-26 03:10:00,
2013-07-25 22:15:00,65.5,60.2,29.96,SSW,196,0.0,0.0,83,0.00,,,0.02,0.0,WeatherDisplay:10.37,2013-07-26 03:15:00,
2013-07-25 22:20:00,65.5,60.2,29.96,South,191,0.0,0.0,83,0.00,,,0.02,0.0,WeatherDisplay:10.37,2013-07-26 03:20:00,
2013-07-25 22:25:00,65.3,60.0,29.96,South,184,0.0,1.2,83,0.00,,,0.02,0.0,WeatherDisplay:10.37,2013-07-26 03:25:00,
2013-07-25 22:30:00,65.3,60.0,29.96,South,184,0.0,0.0,83,0.00,,,0.02,0.0,WeatherDisplay:10.37,2013-07-26 03:30:00,
2013-07-25 22:35:00,65.3,60.0,29.96,South,180,0.1,1.1,83,0.00,,,0.02,0.0,WeatherDisplay:10.37,2013-07-26 03:35:00,
2013-07-25 22:40:00,65.3,60.0,29.96,South,178,0.0,0.0,83,0.00,,,0.02,0.0,WeatherDisplay:10.37,2013-07-26 03:40:00,
2013-07-25 22:45:00,65.3,60.0,29.96,South,178,0.0,0.0,83,0.00,,,0.02,0.0,WeatherDisplay:10.37,2013-07-26 03:45:00,
2013-07-25 22:50:00,65.3,60.0,29.96,South,178,0.0,0.0,83,0.00,,,0.02,0.0,WeatherDisplay:10.37,2013-07-26 03:50:00,
2013-07-25 22:55:00,65.3,60.0,29.96,South,190,2.2,5.8,83,0.00,,,0.02,0.0,WeatherDisplay:10.37,2013-07-26 03:55:00,
2013-07-25 23:00:00,65.5,60.2,29.95,SSW,198,1.6,5.5,83,0.00,,,0.02,0.0,WeatherDisplay:10.37,2013-07-26 04:00:00,
2013-07-25 23:01:00,65.5,59.9,29.95,SSW,198,2.8,5.8,82,0.00,,,0.02,0.0,WeatherDisplay:10.37,2013-07-26 04:01:00,
2013-07-25 23:02:00,65.5,59.9,29.95,South,185,0.7,5.8,82,0.00,,,0.02,0.0,WeatherDisplay:10.37,2013-07-26 04:02:00,
2013-07-25 23:03:00,65.5,59.9,29.95,South,185,2.4,10.4,82,0.00,,,0.02,0.0,WeatherDisplay:10.37,2013-07-26 04:03:00,
2013-07-25 23:08:00,65.5,59.9,29.95,South,184,0.1,1.2,82,0.00,,,0.02,0.0,WeatherDisplay:10.37,2013-07-26 04:08:00,
2013-07-25 23:13:00,65.3,59.7,29.95,South,184,0.6,2.3,82,0.00,,,0.02,0.0,WeatherDisplay:10.37,2013-07-26 04:13:00,
2013-07-25 23:18:00,65.3,59.7,29.95,SSW,198,3.6,9.9,82,0.00,,,0.02,0.0,WeatherDisplay:10.37,2013-07-26 04:18:00,
2013-07-25 23:23:00,65.3,59.7,29.95,South,182,1.1,5.8,82,0.00,,,0.02,0.0,WeatherDisplay:10.37,2013-07-26 04:23:00,
2013-07-25 23:28:00,65.3,59.7,29.95,South,182,0.0,3.3,82,0.00,,,0.02,0.0,WeatherDisplay:10.37,2013-07-26 04:28:00,
2013-07-25 23:33:00,65.2,59.9,29.94,South,180,0.1,1.2,83,0.00,,,0.02,0.0,WeatherDisplay:10.37,2013-07-26 04:33:00,
2013-07-25 23:38:00,65.2,59.9,29.94,SSE,168,0.0,0.0,83,0.00,,,0.02,0.0,WeatherDisplay:10.37,2013-07-26 04:38:00,
2013-07-25 23:43:00,65.2,59.9,29.94,SSW,202,0.7,5.5,83,0.00,,,0.02,0.0,WeatherDisplay:10.37,2013-07-26 04:43:00,
2013-07-25 23:48:00,65.2,59.9,29.93,South,185,0.8,4.4,83,0.00,,,0.02,0.0,WeatherDisplay:10.37,2013-07-26 04:48:00,
2013-07-25 23:53:00,65.0,59.7,29.93,South,184,0.5,5.8,83,0.00,,,0.02,0.0,WeatherDisplay:10.37,2013-07-26 04:53:00,
2013-07-25 23:58:00,65.2,59.9,29.93,South,183,0.0,1.2,83,0.00,,,0.02,0.0,WeatherDisplay:10.37,2013-07-26 04:58:00,